<?xml version="1.0" encoding="UTF-8" standalone="no" ?>
<gpx xmlns="http://www.topografix.com/GPX/1/1" xmlns:xsi="http://www.w3.org/2001/XMLSchema-instance" xsi:schemaLocation="http://www.topografix.com/GPX/1/1 http://www.topografix.com/GPX/1/1/gpx.xsd" version="1.1" creator="VisuGPX - https://www.visugpx.com">
  <metadata>
    <name>4 Octobre 2018 Robinson,Henri Sellier  </name>
    <desc><![CDATA[Le 4 octobre 2018demi journée départ et arrivée gare de Robinson 
Bus 395]]></desc>
  </metadata>
  <trk>
    <name><![CDATA[20181005074335-MtY5p]]></name>
    <trkseg>
      <trkpt lat="48.77968" lon="2.28047">
        <ele>100</ele>
        <time>2018-02-07T08:32:25 01:00</time>
      </trkpt>
      <trkpt lat="48.77965" lon="2.2802">
        <ele>101</ele>
        <time>2018-02-07T08:32:30 01:00</time>
      </trkpt>
      <trkpt lat="48.77984" lon="2.27935">
        <ele>102</ele>
        <time>2018-02-07T08:32:35 01:00</time>
      </trkpt>
      <trkpt lat="48.78004" lon="2.27848">
        <ele>104</ele>
        <time>2018-02-07T08:32:40 01:00</time>
      </trkpt>
      <trkpt lat="48.78031" lon="2.27735">
        <ele>106</ele>
        <time>2018-02-07T08:32:45 01:00</time>
      </trkpt>
      <trkpt lat="48.7804" lon="2.27705">
        <ele>107</ele>
        <time>2018-02-07T08:32:50 01:00</time>
      </trkpt>
      <trkpt lat="48.78041" lon="2.27685">
        <ele>108</ele>
        <time>2018-02-07T08:32:55 01:00</time>
      </trkpt>
      <trkpt lat="48.78064" lon="2.2766">
        <ele>109</ele>
        <time>2018-02-07T08:33:00 01:00</time>
      </trkpt>
      <trkpt lat="48.78094" lon="2.27638">
        <ele>109</ele>
        <time>2018-02-07T08:33:05 01:00</time>
      </trkpt>
      <trkpt lat="48.78112" lon="2.27631">
        <ele>108</ele>
        <time>2018-02-07T08:33:10 01:00</time>
      </trkpt>
      <trkpt lat="48.78125" lon="2.27628">
        <ele>106</ele>
        <time>2018-02-07T08:33:15 01:00</time>
      </trkpt>
      <trkpt lat="48.78139" lon="2.27618">
        <ele>105</ele>
        <time>2018-02-07T08:33:20 01:00</time>
      </trkpt>
      <trkpt lat="48.78145" lon="2.27595">
        <ele>105</ele>
        <time>2018-02-07T08:33:25 01:00</time>
      </trkpt>
      <trkpt lat="48.78151" lon="2.27561">
        <ele>105</ele>
        <time>2018-02-07T08:33:30 01:00</time>
      </trkpt>
      <trkpt lat="48.78163" lon="2.27501">
        <ele>106</ele>
        <time>2018-02-07T08:33:35 01:00</time>
      </trkpt>
      <trkpt lat="48.78119" lon="2.27473">
        <ele>109</ele>
        <time>2018-02-07T08:33:40 01:00</time>
      </trkpt>
      <trkpt lat="48.78034" lon="2.27421">
        <ele>115</ele>
        <time>2018-02-07T08:33:45 01:00</time>
      </trkpt>
      <trkpt lat="48.7798" lon="2.27381">
        <ele>118</ele>
        <time>2018-02-07T08:33:50 01:00</time>
      </trkpt>
      <trkpt lat="48.77979" lon="2.2737">
        <ele>119</ele>
        <time>2018-02-07T08:33:55 01:00</time>
      </trkpt>
      <trkpt lat="48.77999" lon="2.27338">
        <ele>121</ele>
        <time>2018-02-07T08:34:00 01:00</time>
      </trkpt>
      <trkpt lat="48.77985" lon="2.27316">
        <ele>122</ele>
        <time>2018-02-07T08:34:05 01:00</time>
      </trkpt>
      <trkpt lat="48.77994" lon="2.27287">
        <ele>125</ele>
        <time>2018-02-07T08:34:10 01:00</time>
      </trkpt>
      <trkpt lat="48.78008" lon="2.27268">
        <ele>127</ele>
        <time>2018-02-07T08:34:15 01:00</time>
      </trkpt>
      <trkpt lat="48.78016" lon="2.27255">
        <ele>128</ele>
        <time>2018-02-07T08:34:20 01:00</time>
      </trkpt>
      <trkpt lat="48.78024" lon="2.27242">
        <ele>130</ele>
        <time>2018-02-07T08:34:25 01:00</time>
      </trkpt>
      <trkpt lat="48.78028" lon="2.27226">
        <ele>132</ele>
        <time>2018-02-07T08:34:30 01:00</time>
      </trkpt>
      <trkpt lat="48.78026" lon="2.27211">
        <ele>134</ele>
        <time>2018-02-07T08:34:35 01:00</time>
      </trkpt>
      <trkpt lat="48.78024" lon="2.27199">
        <ele>135</ele>
        <time>2018-02-07T08:34:40 01:00</time>
      </trkpt>
      <trkpt lat="48.78025" lon="2.27182">
        <ele>137</ele>
        <time>2018-02-07T08:34:45 01:00</time>
      </trkpt>
      <trkpt lat="48.78015" lon="2.27164">
        <ele>140</ele>
        <time>2018-02-07T08:34:50 01:00</time>
      </trkpt>
      <trkpt lat="48.78004" lon="2.2715">
        <ele>143</ele>
        <time>2018-02-07T08:34:55 01:00</time>
      </trkpt>
      <trkpt lat="48.77992" lon="2.27147">
        <ele>143</ele>
        <time>2018-02-07T08:35:00 01:00</time>
      </trkpt>
      <trkpt lat="48.77981" lon="2.27138">
        <ele>144</ele>
        <time>2018-02-07T08:35:05 01:00</time>
      </trkpt>
      <trkpt lat="48.77959" lon="2.27123">
        <ele>146</ele>
        <time>2018-02-07T08:35:10 01:00</time>
      </trkpt>
      <trkpt lat="48.77932" lon="2.27106">
        <ele>147</ele>
        <time>2018-02-07T08:35:15 01:00</time>
      </trkpt>
      <trkpt lat="48.7792" lon="2.27075">
        <ele>152</ele>
        <time>2018-02-07T08:35:20 01:00</time>
      </trkpt>
      <trkpt lat="48.77912" lon="2.27053">
        <ele>155</ele>
        <time>2018-02-07T08:35:25 01:00</time>
      </trkpt>
      <trkpt lat="48.77901" lon="2.27042">
        <ele>155</ele>
        <time>2018-02-07T08:35:30 01:00</time>
      </trkpt>
      <trkpt lat="48.77883" lon="2.27033">
        <ele>154</ele>
        <time>2018-02-07T08:35:35 01:00</time>
      </trkpt>
      <trkpt lat="48.77864" lon="2.2703">
        <ele>153</ele>
        <time>2018-02-07T08:35:40 01:00</time>
      </trkpt>
      <trkpt lat="48.7785" lon="2.27012">
        <ele>152</ele>
        <time>2018-02-07T08:35:45 01:00</time>
      </trkpt>
      <trkpt lat="48.77842" lon="2.26997">
        <ele>152</ele>
        <time>2018-02-07T08:35:50 01:00</time>
      </trkpt>
      <trkpt lat="48.7784" lon="2.26979">
        <ele>153</ele>
        <time>2018-02-07T08:35:55 01:00</time>
      </trkpt>
      <trkpt lat="48.77842" lon="2.2695">
        <ele>155</ele>
        <time>2018-02-07T08:36:00 01:00</time>
      </trkpt>
      <trkpt lat="48.77852" lon="2.26936">
        <ele>157</ele>
        <time>2018-02-07T08:36:05 01:00</time>
      </trkpt>
      <trkpt lat="48.77836" lon="2.26917">
        <ele>155.4</ele>
      </trkpt>
      <trkpt lat="48.77824" lon="2.26893">
        <ele>152.7</ele>
      </trkpt>
      <trkpt lat="48.77805" lon="2.26863">
        <ele>152.5</ele>
      </trkpt>
      <trkpt lat="48.77782" lon="2.26819">
        <ele>156</ele>
      </trkpt>
      <trkpt lat="48.77759" lon="2.26758">
        <ele>157</ele>
      </trkpt>
      <trkpt lat="48.77746" lon="2.2674">
        <ele>155</ele>
      </trkpt>
      <trkpt lat="48.77752" lon="2.26723">
        <ele>162.1</ele>
      </trkpt>
      <trkpt lat="48.77818" lon="2.26847">
        <ele>155.5</ele>
      </trkpt>
      <trkpt lat="48.77839" lon="2.26892">
        <ele>159.9</ele>
      </trkpt>
      <trkpt lat="48.77865" lon="2.26934">
        <ele>159</ele>
        <time>2018-02-07T08:36:35 01:00</time>
      </trkpt>
      <trkpt lat="48.7787" lon="2.26943">
        <ele>159</ele>
        <time>2018-02-07T08:36:40 01:00</time>
      </trkpt>
      <trkpt lat="48.77881" lon="2.26931">
        <ele>161</ele>
        <time>2018-02-07T08:36:45 01:00</time>
      </trkpt>
      <trkpt lat="48.77896" lon="2.26956">
        <ele>162</ele>
        <time>2018-02-07T08:36:50 01:00</time>
      </trkpt>
      <trkpt lat="48.77913" lon="2.26992">
        <ele>161</ele>
      </trkpt>
      <trkpt lat="48.77931" lon="2.26978">
        <ele>162</ele>
      </trkpt>
      <trkpt lat="48.77951" lon="2.26974">
        <ele>161</ele>
      </trkpt>
      <trkpt lat="48.77965" lon="2.26981">
        <ele>160</ele>
      </trkpt>
      <trkpt lat="48.77982" lon="2.26975">
        <ele>160</ele>
      </trkpt>
      <trkpt lat="48.77991" lon="2.26952">
        <ele>159.9</ele>
      </trkpt>
      <trkpt lat="48.77999" lon="2.26906">
        <ele>160</ele>
      </trkpt>
      <trkpt lat="48.77984" lon="2.26832">
        <ele>163.1</ele>
      </trkpt>
      <trkpt lat="48.77991" lon="2.26799">
        <ele>164</ele>
      </trkpt>
      <trkpt lat="48.78022" lon="2.26774">
        <ele>158</ele>
      </trkpt>
      <trkpt lat="48.78029" lon="2.26749">
        <ele>160.8</ele>
      </trkpt>
      <trkpt lat="48.78073" lon="2.26811">
        <ele>151.9</ele>
      </trkpt>
      <trkpt lat="48.78087" lon="2.26801">
        <ele>146</ele>
      </trkpt>
      <trkpt lat="48.78084" lon="2.26766">
        <ele>148</ele>
      </trkpt>
      <trkpt lat="48.78117" lon="2.2672">
        <ele>147.3</ele>
      </trkpt>
      <trkpt lat="48.7815" lon="2.26746">
        <ele>145</ele>
      </trkpt>
      <trkpt lat="48.78204" lon="2.26742">
        <ele>140.1</ele>
      </trkpt>
      <trkpt lat="48.78233" lon="2.26734">
        <ele>138.5</ele>
      </trkpt>
      <trkpt lat="48.78244" lon="2.26718">
        <ele>138.8</ele>
      </trkpt>
      <trkpt lat="48.78252" lon="2.26697">
        <ele>133.1</ele>
      </trkpt>
      <trkpt lat="48.78251" lon="2.26675">
        <ele>136</ele>
      </trkpt>
      <trkpt lat="48.78225" lon="2.26509">
        <ele>140.9</ele>
      </trkpt>
      <trkpt lat="48.78218" lon="2.2647">
        <ele>140.2</ele>
      </trkpt>
      <trkpt lat="48.78196" lon="2.26448">
        <ele>142</ele>
      </trkpt>
      <trkpt lat="48.78177" lon="2.26436">
        <ele>143</ele>
      </trkpt>
      <trkpt lat="48.78156" lon="2.26409">
        <ele>146.5</ele>
      </trkpt>
      <trkpt lat="48.78136" lon="2.26396">
        <ele>147.3</ele>
      </trkpt>
      <trkpt lat="48.78123" lon="2.26389">
        <ele>149</ele>
        <time>2018-02-07T08:38:10 01:00</time>
      </trkpt>
      <trkpt lat="48.78129" lon="2.2637">
        <ele>146.6</ele>
      </trkpt>
      <trkpt lat="48.78112" lon="2.26367">
        <ele>147</ele>
        <time>2018-02-07T08:38:20 01:00</time>
      </trkpt>
      <trkpt lat="48.78118" lon="2.26336">
        <ele>144</ele>
        <time>2018-02-07T08:38:25 01:00</time>
      </trkpt>
      <trkpt lat="48.78167" lon="2.26362">
        <ele>143</ele>
        <time>2018-02-07T08:38:30 01:00</time>
      </trkpt>
      <trkpt lat="48.78171" lon="2.26351">
        <ele>142</ele>
        <time>2018-02-07T08:38:35 01:00</time>
      </trkpt>
      <trkpt lat="48.78168" lon="2.26344">
        <ele>142</ele>
        <time>2018-02-07T08:38:40 01:00</time>
      </trkpt>
      <trkpt lat="48.78167" lon="2.26331">
        <ele>141</ele>
        <time>2018-02-07T08:38:45 01:00</time>
      </trkpt>
      <trkpt lat="48.78172" lon="2.26314">
        <ele>141</ele>
        <time>2018-02-07T08:38:50 01:00</time>
      </trkpt>
      <trkpt lat="48.78183" lon="2.26297">
        <ele>142</ele>
        <time>2018-02-07T08:38:55 01:00</time>
      </trkpt>
      <trkpt lat="48.78194" lon="2.26288">
        <ele>142</ele>
        <time>2018-02-07T08:39:00 01:00</time>
      </trkpt>
      <trkpt lat="48.78204" lon="2.2627">
        <ele>142</ele>
        <time>2018-02-07T08:39:05 01:00</time>
      </trkpt>
      <trkpt lat="48.78214" lon="2.26254">
        <ele>142</ele>
        <time>2018-02-07T08:39:10 01:00</time>
      </trkpt>
      <trkpt lat="48.78225" lon="2.26252">
        <ele>142</ele>
        <time>2018-02-07T08:39:15 01:00</time>
      </trkpt>
      <trkpt lat="48.78235" lon="2.26223">
        <ele>143</ele>
        <time>2018-02-07T08:39:20 01:00</time>
      </trkpt>
      <trkpt lat="48.78259" lon="2.26245">
        <ele>141</ele>
        <time>2018-02-07T08:39:25 01:00</time>
      </trkpt>
      <trkpt lat="48.78274" lon="2.26261">
        <ele>139</ele>
        <time>2018-02-07T08:39:30 01:00</time>
      </trkpt>
      <trkpt lat="48.78284" lon="2.26262">
        <ele>137</ele>
        <time>2018-02-07T08:39:35 01:00</time>
      </trkpt>
      <trkpt lat="48.78283" lon="2.26239">
        <ele>139</ele>
        <time>2018-02-07T08:39:40 01:00</time>
      </trkpt>
      <trkpt lat="48.78286" lon="2.26236">
        <ele>138</ele>
        <time>2018-02-07T08:39:45 01:00</time>
      </trkpt>
      <trkpt lat="48.78287" lon="2.26211">
        <ele>140</ele>
        <time>2018-02-07T08:39:50 01:00</time>
      </trkpt>
      <trkpt lat="48.78315" lon="2.26202">
        <ele>137</ele>
        <time>2018-02-07T08:39:55 01:00</time>
      </trkpt>
      <trkpt lat="48.78379" lon="2.26181">
        <ele>139</ele>
        <time>2018-02-07T08:40:00 01:00</time>
      </trkpt>
      <trkpt lat="48.78395" lon="2.26177">
        <ele>139</ele>
        <time>2018-02-07T08:40:05 01:00</time>
      </trkpt>
      <trkpt lat="48.78413" lon="2.26185">
        <ele>140</ele>
        <time>2018-02-07T08:40:10 01:00</time>
      </trkpt>
      <trkpt lat="48.78421" lon="2.26274">
        <ele>142</ele>
        <time>2018-02-07T08:40:15 01:00</time>
      </trkpt>
      <trkpt lat="48.78428" lon="2.26342">
        <ele>144</ele>
        <time>2018-02-07T08:40:20 01:00</time>
      </trkpt>
      <trkpt lat="48.78432" lon="2.26318">
        <ele>146</ele>
        <time>2018-02-07T08:40:25 01:00</time>
      </trkpt>
      <trkpt lat="48.78444" lon="2.2626">
        <ele>150.2</ele>
      </trkpt>
      <trkpt lat="48.78453" lon="2.26226">
        <ele>152</ele>
      </trkpt>
      <trkpt lat="48.7846" lon="2.26199">
        <ele>153</ele>
      </trkpt>
      <trkpt lat="48.78475" lon="2.26186">
        <ele>157</ele>
        <time>2018-02-07T08:40:40 01:00</time>
      </trkpt>
      <trkpt lat="48.7848" lon="2.26168">
        <ele>158</ele>
        <time>2018-02-07T08:40:45 01:00</time>
      </trkpt>
      <trkpt lat="48.78488" lon="2.26128">
        <ele>160</ele>
        <time>2018-02-07T08:40:50 01:00</time>
      </trkpt>
      <trkpt lat="48.78495" lon="2.26085">
        <ele>160</ele>
        <time>2018-02-07T08:40:55 01:00</time>
      </trkpt>
      <trkpt lat="48.78496" lon="2.2607">
        <ele>159</ele>
        <time>2018-02-07T08:41:00 01:00</time>
      </trkpt>
      <trkpt lat="48.78497" lon="2.26051">
        <ele>158</ele>
        <time>2018-02-07T08:41:05 01:00</time>
      </trkpt>
      <trkpt lat="48.78499" lon="2.2601">
        <ele>156</ele>
        <time>2018-02-07T08:41:10 01:00</time>
      </trkpt>
      <trkpt lat="48.785" lon="2.25969">
        <ele>156</ele>
        <time>2018-02-07T08:41:15 01:00</time>
      </trkpt>
      <trkpt lat="48.78502" lon="2.25929">
        <ele>155</ele>
        <time>2018-02-07T08:41:20 01:00</time>
      </trkpt>
      <trkpt lat="48.78505" lon="2.25897">
        <ele>156</ele>
        <time>2018-02-07T08:41:25 01:00</time>
      </trkpt>
      <trkpt lat="48.78504" lon="2.25882">
        <ele>156</ele>
        <time>2018-02-07T08:41:30 01:00</time>
      </trkpt>
      <trkpt lat="48.78505" lon="2.25837">
        <ele>158</ele>
        <time>2018-02-07T08:41:35 01:00</time>
      </trkpt>
      <trkpt lat="48.78505" lon="2.25802">
        <ele>161</ele>
        <time>2018-02-07T08:41:40 01:00</time>
      </trkpt>
      <trkpt lat="48.78493" lon="2.25767">
        <ele>165</ele>
        <time>2018-02-07T08:41:45 01:00</time>
      </trkpt>
      <trkpt lat="48.7848" lon="2.25761">
        <ele>164</ele>
        <time>2018-02-07T08:41:50 01:00</time>
      </trkpt>
      <trkpt lat="48.78475" lon="2.25754">
        <ele>165</ele>
        <time>2018-02-07T08:41:55 01:00</time>
      </trkpt>
      <trkpt lat="48.78473" lon="2.25741">
        <ele>165</ele>
        <time>2018-02-07T08:42:00 01:00</time>
      </trkpt>
      <trkpt lat="48.78467" lon="2.25713">
        <ele>165</ele>
        <time>2018-02-07T08:42:05 01:00</time>
      </trkpt>
      <trkpt lat="48.78454" lon="2.25714">
        <ele>164</ele>
        <time>2018-02-07T08:42:10 01:00</time>
      </trkpt>
      <trkpt lat="48.78448" lon="2.25724">
        <ele>164</ele>
        <time>2018-02-07T08:42:15 01:00</time>
      </trkpt>
      <trkpt lat="48.78439" lon="2.25728">
        <ele>163</ele>
        <time>2018-02-07T08:42:20 01:00</time>
      </trkpt>
      <trkpt lat="48.78434" lon="2.25721">
        <ele>163</ele>
        <time>2018-02-07T08:42:25 01:00</time>
      </trkpt>
      <trkpt lat="48.78426" lon="2.25716">
        <ele>162</ele>
        <time>2018-02-07T08:42:30 01:00</time>
      </trkpt>
      <trkpt lat="48.78408" lon="2.25721">
        <ele>161</ele>
        <time>2018-02-07T08:42:35 01:00</time>
      </trkpt>
      <trkpt lat="48.78388" lon="2.25726">
        <ele>160</ele>
        <time>2018-02-07T08:42:40 01:00</time>
      </trkpt>
      <trkpt lat="48.78375" lon="2.25723">
        <ele>160</ele>
        <time>2018-02-07T08:42:45 01:00</time>
      </trkpt>
      <trkpt lat="48.78363" lon="2.25715">
        <ele>160</ele>
        <time>2018-02-07T08:42:50 01:00</time>
      </trkpt>
      <trkpt lat="48.78319" lon="2.25684">
        <ele>159</ele>
        <time>2018-02-07T08:42:55 01:00</time>
      </trkpt>
      <trkpt lat="48.78293" lon="2.25769">
        <ele>159</ele>
        <time>2018-02-07T08:43:00 01:00</time>
      </trkpt>
      <trkpt lat="48.78268" lon="2.2585">
        <ele>156</ele>
        <time>2018-02-07T08:43:05 01:00</time>
      </trkpt>
      <trkpt lat="48.78258" lon="2.25877">
        <ele>155</ele>
        <time>2018-02-07T08:43:10 01:00</time>
      </trkpt>
      <trkpt lat="48.78249" lon="2.25882">
        <ele>155</ele>
        <time>2018-02-07T08:43:15 01:00</time>
      </trkpt>
      <trkpt lat="48.78243" lon="2.25868">
        <ele>156</ele>
        <time>2018-02-07T08:43:20 01:00</time>
      </trkpt>
      <trkpt lat="48.78229" lon="2.25869">
        <ele>157</ele>
        <time>2018-02-07T08:43:25 01:00</time>
      </trkpt>
      <trkpt lat="48.78227" lon="2.25829">
        <ele>159</ele>
        <time>2018-02-07T08:43:30 01:00</time>
      </trkpt>
      <trkpt lat="48.78166" lon="2.25813">
        <ele>161</ele>
        <time>2018-02-07T08:43:35 01:00</time>
      </trkpt>
      <trkpt lat="48.78163" lon="2.25805">
        <ele>161</ele>
        <time>2018-02-07T08:43:40 01:00</time>
      </trkpt>
      <trkpt lat="48.78145" lon="2.25798">
        <ele>162</ele>
        <time>2018-02-07T08:43:45 01:00</time>
      </trkpt>
      <trkpt lat="48.78099" lon="2.25782">
        <ele>163</ele>
        <time>2018-02-07T08:43:50 01:00</time>
      </trkpt>
      <trkpt lat="48.7806" lon="2.25769">
        <ele>164</ele>
        <time>2018-02-07T08:43:55 01:00</time>
      </trkpt>
      <trkpt lat="48.78033" lon="2.25758">
        <ele>166</ele>
        <time>2018-02-07T08:44:00 01:00</time>
      </trkpt>
      <trkpt lat="48.78033" lon="2.2574">
        <ele>166</ele>
        <time>2018-02-07T08:44:05 01:00</time>
      </trkpt>
      <trkpt lat="48.7801" lon="2.25729">
        <ele>167</ele>
        <time>2018-02-07T08:44:10 01:00</time>
      </trkpt>
      <trkpt lat="48.7799" lon="2.25721">
        <ele>168</ele>
        <time>2018-02-07T08:44:15 01:00</time>
      </trkpt>
      <trkpt lat="48.77952" lon="2.25716">
        <ele>169</ele>
        <time>2018-02-07T08:44:20 01:00</time>
      </trkpt>
      <trkpt lat="48.77938" lon="2.2572">
        <ele>169</ele>
        <time>2018-02-07T08:44:25 01:00</time>
      </trkpt>
      <trkpt lat="48.77924" lon="2.25731">
        <ele>169</ele>
        <time>2018-02-07T08:44:30 01:00</time>
      </trkpt>
      <trkpt lat="48.77917" lon="2.2574">
        <ele>169</ele>
        <time>2018-02-07T08:44:35 01:00</time>
      </trkpt>
      <trkpt lat="48.77907" lon="2.25749">
        <ele>169</ele>
        <time>2018-02-07T08:44:40 01:00</time>
      </trkpt>
      <trkpt lat="48.77898" lon="2.25751">
        <ele>169</ele>
        <time>2018-02-07T08:44:45 01:00</time>
      </trkpt>
      <trkpt lat="48.7789" lon="2.25757">
        <ele>169</ele>
        <time>2018-02-07T08:44:50 01:00</time>
      </trkpt>
      <trkpt lat="48.77878" lon="2.25763">
        <ele>168</ele>
        <time>2018-02-07T08:44:55 01:00</time>
      </trkpt>
      <trkpt lat="48.7787" lon="2.25756">
        <ele>168</ele>
        <time>2018-02-07T08:45:00 01:00</time>
      </trkpt>
      <trkpt lat="48.77864" lon="2.25758">
        <ele>168</ele>
        <time>2018-02-07T08:45:05 01:00</time>
      </trkpt>
      <trkpt lat="48.77857" lon="2.25765">
        <ele>168</ele>
        <time>2018-02-07T08:45:10 01:00</time>
      </trkpt>
      <trkpt lat="48.77849" lon="2.25774">
        <ele>168</ele>
        <time>2018-02-07T08:45:15 01:00</time>
      </trkpt>
      <trkpt lat="48.77852" lon="2.25784">
        <ele>168</ele>
        <time>2018-02-07T08:45:20 01:00</time>
      </trkpt>
      <trkpt lat="48.77837" lon="2.25796">
        <ele>167</ele>
        <time>2018-02-07T08:45:25 01:00</time>
      </trkpt>
      <trkpt lat="48.77827" lon="2.2581">
        <ele>167</ele>
        <time>2018-02-07T08:45:30 01:00</time>
      </trkpt>
      <trkpt lat="48.77819" lon="2.25806">
        <ele>167</ele>
        <time>2018-02-07T08:45:35 01:00</time>
      </trkpt>
      <trkpt lat="48.77809" lon="2.25765">
        <ele>168</ele>
        <time>2018-02-07T08:45:40 01:00</time>
      </trkpt>
      <trkpt lat="48.77818" lon="2.25766">
        <ele>168</ele>
        <time>2018-02-07T08:45:45 01:00</time>
      </trkpt>
      <trkpt lat="48.77799" lon="2.25717">
        <ele>169</ele>
        <time>2018-02-07T08:45:50 01:00</time>
      </trkpt>
      <trkpt lat="48.77788" lon="2.25669">
        <ele>170</ele>
        <time>2018-02-07T08:45:55 01:00</time>
      </trkpt>
      <trkpt lat="48.77772" lon="2.25631">
        <ele>171</ele>
        <time>2018-02-07T08:46:00 01:00</time>
      </trkpt>
      <trkpt lat="48.7776" lon="2.25596">
        <ele>172</ele>
        <time>2018-02-07T08:46:05 01:00</time>
      </trkpt>
      <trkpt lat="48.77756" lon="2.25591">
        <ele>172</ele>
        <time>2018-02-07T08:46:10 01:00</time>
      </trkpt>
      <trkpt lat="48.77747" lon="2.25591">
        <ele>172</ele>
        <time>2018-02-07T08:46:15 01:00</time>
      </trkpt>
      <trkpt lat="48.77736" lon="2.25595">
        <ele>171</ele>
        <time>2018-02-07T08:46:20 01:00</time>
      </trkpt>
      <trkpt lat="48.77732" lon="2.25607">
        <ele>171</ele>
        <time>2018-02-07T08:46:25 01:00</time>
      </trkpt>
      <trkpt lat="48.77718" lon="2.25639">
        <ele>170</ele>
        <time>2018-02-07T08:46:30 01:00</time>
      </trkpt>
      <trkpt lat="48.777" lon="2.25673">
        <ele>169</ele>
        <time>2018-02-07T08:46:35 01:00</time>
      </trkpt>
      <trkpt lat="48.77675" lon="2.25632">
        <ele>170</ele>
        <time>2018-02-07T08:46:40 01:00</time>
      </trkpt>
      <trkpt lat="48.77649" lon="2.25672">
        <ele>170</ele>
        <time>2018-02-07T08:46:45 01:00</time>
      </trkpt>
      <trkpt lat="48.77633" lon="2.25698">
        <ele>170</ele>
        <time>2018-02-07T08:46:50 01:00</time>
      </trkpt>
      <trkpt lat="48.77628" lon="2.25712">
        <ele>170.2</ele>
      </trkpt>
      <trkpt lat="48.77628" lon="2.25734">
        <ele>170</ele>
      </trkpt>
      <trkpt lat="48.77616" lon="2.25746">
        <ele>170.2</ele>
      </trkpt>
      <trkpt lat="48.7761" lon="2.25767">
        <ele>170</ele>
      </trkpt>
      <trkpt lat="48.77608" lon="2.25777">
        <ele>170.3</ele>
      </trkpt>
      <trkpt lat="48.77612" lon="2.25799">
        <ele>170</ele>
      </trkpt>
      <trkpt lat="48.77618" lon="2.25821">
        <ele>170</ele>
      </trkpt>
      <trkpt lat="48.77629" lon="2.25838">
        <ele>171</ele>
      </trkpt>
      <trkpt lat="48.77644" lon="2.25864">
        <ele>171</ele>
      </trkpt>
      <trkpt lat="48.77649" lon="2.25883">
        <ele>171.4</ele>
      </trkpt>
      <trkpt lat="48.77642" lon="2.25894">
        <ele>172</ele>
      </trkpt>
      <trkpt lat="48.77629" lon="2.25894">
        <ele>172</ele>
      </trkpt>
      <trkpt lat="48.77618" lon="2.25888">
        <ele>172</ele>
      </trkpt>
      <trkpt lat="48.77611" lon="2.25881">
        <ele>171.7</ele>
      </trkpt>
      <trkpt lat="48.77599" lon="2.25865">
        <ele>171.7</ele>
      </trkpt>
      <trkpt lat="48.77589" lon="2.25848">
        <ele>171.8</ele>
      </trkpt>
      <trkpt lat="48.77584" lon="2.25831">
        <ele>171.8</ele>
      </trkpt>
      <trkpt lat="48.77571" lon="2.25809">
        <ele>171.9</ele>
      </trkpt>
      <trkpt lat="48.77562" lon="2.25809">
        <ele>172</ele>
      </trkpt>
      <trkpt lat="48.77542" lon="2.25833">
        <ele>172</ele>
      </trkpt>
      <trkpt lat="48.77525" lon="2.25862">
        <ele>174</ele>
        <time>2018-02-07T08:47:10 01:00</time>
      </trkpt>
      <trkpt lat="48.77515" lon="2.25877">
        <ele>174</ele>
        <time>2018-02-07T08:47:15 01:00</time>
      </trkpt>
      <trkpt lat="48.77527" lon="2.259">
        <ele>174</ele>
        <time>2018-02-07T08:47:20 01:00</time>
      </trkpt>
      <trkpt lat="48.77538" lon="2.25924">
        <ele>173.7</ele>
      </trkpt>
      <trkpt lat="48.77532" lon="2.25957">
        <ele>174</ele>
      </trkpt>
      <trkpt lat="48.77536" lon="2.25972">
        <ele>173</ele>
      </trkpt>
      <trkpt lat="48.77554" lon="2.25993">
        <ele>173.1</ele>
      </trkpt>
      <trkpt lat="48.77587" lon="2.26044">
        <ele>171.8</ele>
      </trkpt>
      <trkpt lat="48.77595" lon="2.26058">
        <ele>172</ele>
      </trkpt>
      <trkpt lat="48.77559" lon="2.26116">
        <ele>170.8</ele>
      </trkpt>
      <trkpt lat="48.77591" lon="2.26163">
        <ele>170.4</ele>
      </trkpt>
      <trkpt lat="48.77558" lon="2.26214">
        <ele>169.2</ele>
      </trkpt>
      <trkpt lat="48.77542" lon="2.26245">
        <ele>169</ele>
        <time>2018-02-07T08:48:05 01:00</time>
      </trkpt>
      <trkpt lat="48.77552" lon="2.2627">
        <ele>168</ele>
        <time>2018-02-07T08:48:10 01:00</time>
      </trkpt>
      <trkpt lat="48.77566" lon="2.26329">
        <ele>166.6</ele>
      </trkpt>
      <trkpt lat="48.77575" lon="2.26381">
        <ele>163.3</ele>
      </trkpt>
      <trkpt lat="48.77604" lon="2.26525">
        <ele>165.4</ele>
      </trkpt>
      <trkpt lat="48.77559" lon="2.26592">
        <ele>153.1</ele>
      </trkpt>
      <trkpt lat="48.77542" lon="2.26603">
        <ele>150</ele>
      </trkpt>
      <trkpt lat="48.77522" lon="2.26589">
        <ele>147</ele>
      </trkpt>
      <trkpt lat="48.77494" lon="2.26614">
        <ele>140</ele>
      </trkpt>
      <trkpt lat="48.77486" lon="2.26645">
        <ele>140</ele>
      </trkpt>
      <trkpt lat="48.7749" lon="2.26679">
        <ele>138</ele>
      </trkpt>
      <trkpt lat="48.77507" lon="2.26693">
        <ele>140</ele>
      </trkpt>
      <trkpt lat="48.77525" lon="2.267">
        <ele>139</ele>
      </trkpt>
      <trkpt lat="48.77547" lon="2.26702">
        <ele>140</ele>
      </trkpt>
      <trkpt lat="48.77567" lon="2.26699">
        <ele>141</ele>
      </trkpt>
      <trkpt lat="48.77573" lon="2.26707">
        <ele>140.5</ele>
      </trkpt>
      <trkpt lat="48.77556" lon="2.26716">
        <ele>139</ele>
      </trkpt>
      <trkpt lat="48.77528" lon="2.26726">
        <ele>137</ele>
      </trkpt>
      <trkpt lat="48.77477" lon="2.26726">
        <ele>131.4</ele>
      </trkpt>
      <trkpt lat="48.77426" lon="2.26726">
        <ele>129.1</ele>
      </trkpt>
      <trkpt lat="48.77409" lon="2.26696">
        <ele>126.1</ele>
      </trkpt>
      <trkpt lat="48.77413" lon="2.26642">
        <ele>131</ele>
      </trkpt>
      <trkpt lat="48.77404" lon="2.2662">
        <ele>131</ele>
        <time>2018-02-07T08:50:00 01:00</time>
      </trkpt>
      <trkpt lat="48.77374" lon="2.26669">
        <ele>128</ele>
        <time>2018-02-07T08:50:05 01:00</time>
      </trkpt>
      <trkpt lat="48.77353" lon="2.26716">
        <ele>120</ele>
        <time>2018-02-07T08:50:10 01:00</time>
      </trkpt>
      <trkpt lat="48.77343" lon="2.26758">
        <ele>114</ele>
        <time>2018-02-07T08:50:15 01:00</time>
      </trkpt>
      <trkpt lat="48.77365" lon="2.26796">
        <ele>113</ele>
        <time>2018-02-07T08:50:20 01:00</time>
      </trkpt>
      <trkpt lat="48.77388" lon="2.26812">
        <ele>113</ele>
        <time>2018-02-07T08:50:25 01:00</time>
      </trkpt>
      <trkpt lat="48.77444" lon="2.26846">
        <ele>114</ele>
        <time>2018-02-07T08:50:30 01:00</time>
      </trkpt>
      <trkpt lat="48.77498" lon="2.26916">
        <ele>108</ele>
        <time>2018-02-07T08:50:35 01:00</time>
      </trkpt>
      <trkpt lat="48.77517" lon="2.26927">
        <ele>110</ele>
        <time>2018-02-07T08:50:40 01:00</time>
      </trkpt>
      <trkpt lat="48.77488" lon="2.27006">
        <ele>109</ele>
        <time>2018-02-07T08:50:45 01:00</time>
      </trkpt>
      <trkpt lat="48.77479" lon="2.2704">
        <ele>110</ele>
        <time>2018-02-07T08:50:50 01:00</time>
      </trkpt>
      <trkpt lat="48.77475" lon="2.27065">
        <ele>110</ele>
        <time>2018-02-07T08:50:55 01:00</time>
      </trkpt>
      <trkpt lat="48.77476" lon="2.27098">
        <ele>110</ele>
        <time>2018-02-07T08:51:00 01:00</time>
      </trkpt>
      <trkpt lat="48.77482" lon="2.27128">
        <ele>111</ele>
        <time>2018-02-07T08:51:05 01:00</time>
      </trkpt>
      <trkpt lat="48.77524" lon="2.27187">
        <ele>112</ele>
        <time>2018-02-07T08:51:10 01:00</time>
      </trkpt>
      <trkpt lat="48.77585" lon="2.27282">
        <ele>111</ele>
        <time>2018-02-07T08:51:15 01:00</time>
      </trkpt>
      <trkpt lat="48.77627" lon="2.27389">
        <ele>109</ele>
        <time>2018-02-07T08:51:20 01:00</time>
      </trkpt>
      <trkpt lat="48.77671" lon="2.27492">
        <ele>107</ele>
        <time>2018-02-07T08:51:25 01:00</time>
      </trkpt>
      <trkpt lat="48.77722" lon="2.27587">
        <ele>102</ele>
        <time>2018-02-07T08:51:30 01:00</time>
      </trkpt>
      <trkpt lat="48.7777" lon="2.27627">
        <ele>102</ele>
        <time>2018-02-07T08:51:35 01:00</time>
      </trkpt>
      <trkpt lat="48.77798" lon="2.27669">
        <ele>102</ele>
        <time>2018-02-07T08:51:40 01:00</time>
      </trkpt>
      <trkpt lat="48.77823" lon="2.27735">
        <ele>103</ele>
        <time>2018-02-07T08:51:45 01:00</time>
      </trkpt>
      <trkpt lat="48.77839" lon="2.27797">
        <ele>104</ele>
        <time>2018-02-07T08:51:50 01:00</time>
      </trkpt>
      <trkpt lat="48.77852" lon="2.27869">
        <ele>105</ele>
        <time>2018-02-07T08:51:55 01:00</time>
      </trkpt>
      <trkpt lat="48.77854" lon="2.27963">
        <ele>104.2</ele>
      </trkpt>
      <trkpt lat="48.77906" lon="2.27999">
        <ele>103.5</ele>
      </trkpt>
      <trkpt lat="48.77907" lon="2.28016">
        <ele>103</ele>
      </trkpt>
      <trkpt lat="48.77902" lon="2.28069">
        <ele>102.3</ele>
      </trkpt>
      <trkpt lat="48.77963" lon="2.2811">
        <ele>100</ele>
      </trkpt>
      <trkpt lat="48.77956" lon="2.28146">
        <ele>101.1</ele>
      </trkpt>
      <trkpt lat="48.77992" lon="2.28159">
        <ele>99</ele>
      </trkpt>
    </trkseg>
  </trk>
</gpx>